1329600087811531,  0.01398026762, -0.00799448685,  0.00005641743, -0.00002113760,  0.00000764271, -0.00019210587,  0.02389841771, -0.00004743858, -0.00001021799,  0.00001133597,  0.00038059787,  0.03920610429,  0.00088819542, -0.00031977773, -0.00001994669,  0.00009300222, -0.00000338160, -0.00000211688,  0.00004751819, -0.00000138205,  0.00002575070
1329600121011289,  0.01295501384, -0.00727941420,  0.00006945978, -0.00002839869,  0.00000237040, -0.00014364515,  0.02702466968,  0.00008570367,  0.00002738938, -0.00000963532,  0.00043245889,  0.03918525280,  0.00086026490, -0.00003713115, -0.00007688706,  0.00008205966,  0.00001564438, -0.00000519265,  0.00005563368, -0.00000221715,  0.00002595737
1329600124411273,  0.01223315459, -0.00608435316,  0.00004192977, -0.00002075667,  0.00000179233, -0.00009339429,  0.03011141241,  0.00017101484,  0.00001728321, -0.00001243257,  0.00047654191,  0.04038856139,  0.00079403101, -0.00019579898, -0.00004180365,  0.00009224906,  0.00001671123, -0.00000387265,  0.00005833509, -0.00000184970,  0.00002760675
1329600128011248,  0.01177995832, -0.00450349615,  0.00001894303, -0.00001776233,  0.00000113185, -0.00005223595,  0.03320538522,  0.00028669163,  0.00001546248, -0.00001466409,  0.00051138780,  0.04307165774,  0.00073330195, -0.00035666177, -0.00002663555,  0.00008472503,  0.00001317009, -0.00000299586,  0.00005835837, -0.00000163858,  0.00002647095
1329600131611222,  0.01170489197, -0.00255904863, -0.00000259744, -0.00001656342,  0.00000134161, -0.00001281337,  0.03658465953,  0.00044070474,  0.00001532325, -0.00001602688,  0.00055283820,  0.04772874820,  0.00069851502, -0.00054980477, -0.00001530237,  0.00009099069,  0.00000601889, -0.00000315639,  0.00006319931, -0.00000141683,  0.00002906479
1329600135211197,  0.01195647034, -0.00011348456,  0.00002264900, -0.00001324903, -0.00000311824,  0.00004635419,  0.03945601950,  0.00062683260,  0.00002975534, -0.00002305940,  0.00059908627,  0.05346100084,  0.00085302048, -0.00055176779, -0.00002728474,  0.00007866929,  0.00000598080, -0.00000290701,  0.00006953394, -0.00000128996,  0.00002837509
1329600138811162,  0.01277676534,  0.00278873090,  0.00019368163, -0.00000399908, -0.00000840742,  0.00010897650,  0.04011751395,  0.00076590655,  0.00002869693, -0.00001904594,  0.00061364257,  0.05830560855,  0.00107298571, -0.00038718197, -0.00001153806,  0.00007986104, -0.00000546568, -0.00000131649,  0.00007354177, -0.00000052898,  0.00002980758
1329600142411148,  0.01406522118,  0.00509361296,  0.00039291060,  0.00000556674, -0.00000508845,  0.00019072827,  0.03753133002,  0.00078381117,  0.00002046115, -0.00000231877,  0.00057245391,  0.06007814875,  0.00120888865,  0.00008382372,  0.00001470689,  0.00008025238, -0.00000569526,  0.00000046266,  0.00006033746, -0.00000042899,  0.00002735620
1329600146011120,  0.01494998330,  0.00548239606,  0.00046226548,  0.00000173528,  0.00000660607,  0.00022135090,  0.03268468231,  0.00074365078,  0.00000509705,  0.00002271024,  0.00050635270,  0.05670774801,  0.00099961609,  0.00064536928,  0.00002496278,  0.00009024063,  0.00000403400,  0.00000233567,  0.00004429070, -0.00000022323,  0.00002550367
1329600149811091,  0.01441706653,  0.00395945508,  0.00048852078, -0.00000268058,  0.00000919753,  0.00019447548,  0.02812270962,  0.00056990341, -0.00001153832,  0.00001804674,  0.00043600799,  0.04826092413,  0.00042775836,  0.00090244042,  0.00002177649,  0.00007286763,  0.00001446069,  0.00000228526,  0.00004759733,  0.00000091537,  0.00002399649
1329600153411059,  0.01367465864,  0.00233709761,  0.00053160332,  0.00000433983,  0.00000702887,  0.00017062511,  0.02437653782,  0.00035097878, -0.00000246798, -0.00000070942,  0.00038603549,  0.04038377110,  0.00048929278,  0.00068899985,  0.00002593327,  0.00007379722,  0.00000565058,  0.00000070345,  0.00004152692,  0.00000092498,  0.00002336216
1329600157011060,  0.01308969785,  0.00097417819,  0.00050789385,  0.00000329254,  0.00000981726,  0.00015135874,  0.02093559821,  0.00024425788, -0.00000614878, -0.00000138783,  0.00033154844,  0.03386343932,  0.00040844001,  0.00058720589,  0.00001703042,  0.00007536252,  0.00000866070,  0.00000084314,  0.00003778385,  0.00000075741,  0.00002200301
1329600160411015,  0.01258630823, -0.00015337510,  0.00046181763,  0.00000045014,  0.00001037460,  0.00013061451,  0.01817280178,  0.00019912151, -0.00001339200, -0.00000360023,  0.00028408297,  0.02874547924,  0.00033781476,  0.00047995162,  0.00001908366,  0.00007015934,  0.00000813682,  0.00000190779,  0.00003653426,  0.00000089970,  0.00002086816
1329600164011005,  0.01204046459, -0.00123290689,  0.00041836769, -0.00000533171,  0.00001144005,  0.00009684933,  0.01590299535,  0.00017144021, -0.00001915465, -0.00001119752,  0.00024364294,  0.02426837381,  0.00011141933,  0.00042214538,  0.00001305489,  0.00005870229,  0.00001776155,  0.00000239372,  0.00004359575,  0.00000177934,  0.00001960741
1329600167610956,  0.01153442568, -0.00228733391,  0.00035609043, -0.00000089406,  0.00001116038,  0.00005230118,  0.01409687538,  0.00021420499, -0.00001469479, -0.00000854847,  0.00022186068,  0.02074192143,  0.00002628020,  0.00025948553, -0.00000123849,  0.00005812227,  0.00001464192,  0.00000129138,  0.00003623411,  0.00000087464,  0.00001665823
1329600171210932,  0.01132415649, -0.00304263243,  0.00031504773, -0.00000128872,  0.00001026410,  0.00002026005,  0.01234485776,  0.00027833675, -0.00001830731, -0.00001608484,  0.00019506936,  0.01877543434, -0.00005941156,  0.00012802998, -0.00000367284,  0.00005507146,  0.00001442909,  0.00000164357,  0.00003551524,  0.00000126872,  0.00001627797
1329600174810921,  0.01128150599, -0.00357311665,  0.00027601011, -0.00000062240,  0.00000927655, -0.00000850711,  0.01080707146,  0.00037410427, -0.00001945904, -0.00001703948,  0.00017277552,  0.01809811396, -0.00014402535,  0.00001030701, -0.00001098495,  0.00005378043,  0.00001385853,  0.00000169870,  0.00003301973,  0.00000117645,  0.00001460923
1329600178410926,  0.01138519331, -0.00392878785,  0.00025117192,  0.00000063249,  0.00000932645, -0.00003319918,  0.00947042955,  0.00051955556, -0.00002946413, -0.00001330276,  0.00015390286,  0.01857311262, -0.00023146455, -0.00005498010, -0.00001704991,  0.00005340559,  0.00000937646,  0.00000174884,  0.00002807468,  0.00000057874,  0.00001403492
1329600182010855,  0.01150400977, -0.00396452692,  0.00021198409, -0.00000034100,  0.00001020362, -0.00004535507,  0.00815463558,  0.00067099217, -0.00003128193, -0.00002243183,  0.00012669403,  0.01944982010, -0.00025769114, -0.00016341972, -0.00002304792,  0.00005204362,  0.00001154578,  0.00000219778,  0.00002924059,  0.00000108787,  0.00001355677
1329600185810877,  0.01176133846, -0.00398190371,  0.00018064399, -0.00000034278,  0.00001197059, -0.00006748233,  0.00710391838,  0.00088585212, -0.00003657674, -0.00002993922,  0.00010682515,  0.02167350895, -0.00033215347, -0.00026689076, -0.00003913637,  0.00005330257,  0.00001350445,  0.00000336134,  0.00002934607,  0.00000177294,  0.00001320349
1329600193410821,  0.01197682040, -0.00376368417,  0.00016580910,  0.00000211460,  0.00000972302, -0.00008484811,  0.00612049550,  0.00102393259, -0.00003880091, -0.00001723446,  0.00008631240,  0.02430140521, -0.00049188830, -0.00019884519, -0.00003994118,  0.00005672569,  0.00000779413,  0.00000296741,  0.00002134822,  0.00000084849,  0.00001246046
1329600197210759,  0.01191828962, -0.00332817651,  0.00011473990,  0.00000492921,  0.00000872783, -0.00008897803,  0.00536400069,  0.00115760591, -0.00004642755, -0.00000277669,  0.00006523826,  0.02576323034, -0.00056566414, -0.00005998757, -0.00003492643,  0.00005905353,  0.00000230723,  0.00000300895,  0.00001721599,  0.00000017459,  0.00001252045
1329600200610738,  0.01160846721, -0.00283313433,  0.00010694631,  0.00000984705,  0.00000642401, -0.00008792746,  0.00480539250,  0.00108832225, -0.00004300960,  0.00000592792,  0.00004850726,  0.02596309240, -0.00055952516,  0.00005359878, -0.00006897574,  0.00006071978,  0.00000173590,  0.00000690083,  0.00001679280,  0.00000030682,  0.00001369023
1329600204210710,  0.01103329139, -0.00238998400,  0.00010939799,  0.00001262426,  0.00000441210, -0.00007380958,  0.00444625164,  0.00089991721, -0.00003303247,  0.00001369666,  0.00003937291,  0.02421570084, -0.00044593444,  0.00019413564, -0.00008400383,  0.00005991825, -0.00000573831,  0.00001021099,  0.00001858234, -0.00000111388,  0.00001510808
1329600208410683,  0.01041429178, -0.00199034386,  0.00009883616,  0.00000497121,  0.00000323632, -0.00005658098,  0.00415331813,  0.00073140931, -0.00002259804,  0.00001255056,  0.00003510326,  0.02197976107, -0.00036313263,  0.00018320849, -0.00003582832,  0.00005944796, -0.00000624011,  0.00000558753,  0.00001829454, -0.00000064239,  0.00001257609
1329600212010652,  0.00996960207, -0.00169001868,  0.00009826343,  0.00000269649,  0.00000270191, -0.00004797687,  0.00393034932,  0.00061026300, -0.00001754608,  0.00001031927,  0.00003233170,  0.02040126044, -0.00030663562,  0.00016083764, -0.00002673120,  0.00005926699, -0.00000732292,  0.00000515944,  0.00001825553, -0.00000068418,  0.00001218842
1329600215610629,  0.00958601263, -0.00143211427,  0.00010351273, -0.00000004980,  0.00000039181, -0.00003913790,  0.00373402028,  0.00050930464, -0.00001363982,  0.00000745655,  0.00003077834,  0.01905585275, -0.00026357378,  0.00010152089, -0.00002548050,  0.00005874081, -0.00000374959,  0.00000519839,  0.00001605686, -0.00000045652,  0.00001115383
1329600219410604,  0.00927511168, -0.00120493002,  0.00010360567,  0.00000028739,  0.00000048149, -0.00003342503,  0.00355098916,  0.00044992619, -0.00001107140,  0.00000647570,  0.00003060583,  0.01814185996, -0.00021091384,  0.00008740385, -0.00001655511,  0.00005605291, -0.00000759895,  0.00000421982,  0.00001670532, -0.00000072770,  0.00001085841
1329600223010578,  0.00902604312, -0.00100131175,  0.00011972255, -0.00000101562, -0.00000128637, -0.00002892233,  0.00336790173,  0.00040670117, -0.00000960993,  0.00000251279,  0.00002916804,  0.01774280983, -0.00018982926, -0.00000071565, -0.00001317675,  0.00005305084,  0.00000003150,  0.00000382831,  0.00001453338, -0.00000005913,  0.00001014415
1329600226410545,  0.00885732573, -0.00082375179,  0.00015787727, -0.00000209966, -0.00000406784, -0.00002739425,  0.00319790797,  0.00038806858, -0.00000759778, -0.00000107354,  0.00002216811,  0.01809574384, -0.00018251304, -0.00008532931, -0.00001773862,  0.00005020419,  0.00000372604,  0.00000507590,  0.00001664049,  0.00000036557,  0.00001075570
1329600229810527,  0.00875006368, -0.00064635815,  0.00024061069, -0.00000152529, -0.00000946134, -0.00003766715,  0.00305772038,  0.00039014371, -0.00000245771, -0.00000400637,  0.00001219114,  0.01949565063, -0.00017911863, -0.00020654191, -0.00002898245,  0.00004304191,  0.00000902797,  0.00000555000,  0.00002131565,  0.00000162621,  0.00001026387
1329600233410495,  0.00878080949, -0.00042331852,  0.00033128277,  0.00000004564, -0.00001036547, -0.00006193885,  0.00302054771,  0.00043977860, -0.00000215832, -0.00000565974, -0.00000561270,  0.02231955490, -0.00026468199, -0.00030756271, -0.00004731603,  0.00002846453,  0.00001155173,  0.00000277767,  0.00002679053,  0.00000221465,  0.00001036825
1329600238410459,  0.00839572970, -0.00028372858,  0.00029729208, -0.00000816698,  0.00000343243, -0.00005289982,  0.00305924884,  0.00048920903, -0.00000803500,  0.00000329628, -0.00001880579,  0.02279944943, -0.00038606470,  0.00018221805, -0.00001528398,  0.00003638622, -0.00000742640,  0.00000083113,  0.00001577339, -0.00000015678,  0.00000927924
1329600242010442,  0.00792769875, -0.00033909286,  0.00023827248, -0.00000580832,  0.00000523651, -0.00004314491,  0.00304107885,  0.00045807549, -0.00000696323,  0.00000525124, -0.00001107541,  0.02075772463, -0.00028171673,  0.00022327887,  0.00000267883,  0.00004468215, -0.00001047429, -0.00000063497,  0.00001589008,  0.00000022653,  0.00000821841
1329600245610418,  0.00752357973, -0.00038331153,  0.00022050300, -0.00000628295,  0.00000473459, -0.00004427568,  0.00304231806,  0.00040962520, -0.00000588536,  0.00000285241, -0.00001022916,  0.01904217674, -0.00027014714,  0.00014785392, -0.00001358045,  0.00005249631, -0.00000267574,  0.00000251641,  0.00001413954, -0.00000004127,  0.00001012860
1329600249210389,  0.00715180212, -0.00041480007,  0.00017585451, -0.00000466407,  0.00000425038, -0.00003746168,  0.00304559734,  0.00038788747, -0.00000542102,  0.00000350843, -0.00001100016,  0.01770199428, -0.00023006551,  0.00014786707, -0.00000387624,  0.00005418589, -0.00000645634,  0.00000051266,  0.00001520628, -0.00000005234,  0.00001083266
1329600252810423,  0.00681625115, -0.00045819041,  0.00013647245, -0.00000362654,  0.00000260488, -0.00003452237,  0.00302317426,  0.00036138312, -0.00000458176,  0.00000320817, -0.00000651809,  0.01634009592, -0.00018301343,  0.00012451076, -0.00000235667,  0.00005321068, -0.00000571119, -0.00000057733,  0.00001369916, -0.00000000004,  0.00001019184
1329600256410332,  0.00652534925, -0.00048384295,  0.00009679468, -0.00000158533,  0.00000212076, -0.00002739741,  0.00301272391,  0.00034377562, -0.00000468284,  0.00000296146, -0.00000565326,  0.01529119312, -0.00017019183,  0.00008324791,  0.00000094355,  0.00005266931,  0.00000058981, -0.00000122539,  0.00001193270, -0.00000007418,  0.00000962950
1329600260010318,  0.00630099618, -0.00050086031,  0.00005627105,  0.00000316746,  0.00000137367, -0.00002152505,  0.00300728402,  0.00033105216, -0.00000445712,  0.00000424162, -0.00000694940,  0.01445166229, -0.00014921020,  0.00008687299,  0.00000132747,  0.00005116830, -0.00000206001, -0.00000151831,  0.00001165725,  0.00000000068,  0.00000947910
1329600263610291,  0.00613440077, -0.00052526669,  0.00002778762,  0.00000795631, -0.00000027646, -0.00001596162,  0.00299922124,  0.00030745020, -0.00000330410,  0.00000564573, -0.00000362735,  0.01353513865, -0.00010135479,  0.00009171365,  0.00000017155,  0.00005010882, -0.00000629818, -0.00000132753,  0.00001244369,  0.00000013932,  0.00000942312
1329600267010266,  0.00602067386, -0.00053784476,  0.00002200184,  0.00000638018,  0.00000055924, -0.00001183236,  0.00299062670,  0.00027293625, -0.00000334176,  0.00000476663, -0.00000197392,  0.01277609677, -0.00008891731,  0.00007217080, -0.00000306637,  0.00004983848, -0.00000063803,  0.00000038894,  0.00001130485, -0.00000006280,  0.00000925757
1329600270610240,  0.00594784215, -0.00054333338,  0.00001607706,  0.00000570425,  0.00000024271, -0.00000766871,  0.00298653493,  0.00024081165, -0.00000275350,  0.00000480547, -0.00000188346,  0.01208047519, -0.00007435317,  0.00007093882, -0.00000170479,  0.00004878760, -0.00000226431,  0.00000067851,  0.00001158188, -0.00000004627,  0.00000923224
1329600274210267,  0.00588712160, -0.00054529743,  0.00001132329,  0.00000558033, -0.00000045987, -0.00001097909,  0.00296467699,  0.00021211308, -0.00000182853,  0.00000521055,  0.00000258426,  0.01141094066, -0.00004227892,  0.00007443467,  0.00000138975,  0.00003186951, -0.00000558438, -0.00000094798,  0.00001140473,  0.00000026317,  0.00000710047
1329600277610191,  0.00581058505, -0.00055116844,  0.00001079074,  0.00000584274, -0.00000044099, -0.00000752375,  0.00292361834,  0.00018167535, -0.00000206230,  0.00000508222,  0.00000559066,  0.01078615344, -0.00003631347,  0.00006231926, -0.00000201142,  0.00001943977, -0.00000194126,  0.00000039662,  0.00000909311, -0.00000007075,  0.00000505782
1329600281410160,  0.00577868630, -0.00054759395,  0.00000626163,  0.00000523270,  0.00000221635, -0.00000102049,  0.00290500218,  0.00015420794, -0.00000415202,  0.00000312427,  0.00000124528,  0.01036257376, -0.00006604568,  0.00001845566, -0.00000048822,  0.00001714492,  0.00000388654,  0.00000018217,  0.00001022262,  0.00000009207,  0.00000475721
1329600285010142,  0.00578328992, -0.00055376511,  0.00000944568,  0.00000419997,  0.00000001753,  0.00000225120,  0.00290236445,  0.00013022032, -0.00000297275,  0.00000337832, -0.00000290302,  0.01016040896, -0.00007117807,  0.00002601699, -0.00000019710,  0.00002062555,  0.00000049508,  0.00000005185,  0.00000780061, -0.00000007193,  0.00000445426
1329600288410113,  0.00581669134, -0.00055900823,  0.00001819909,  0.00000276174, -0.00000160554,  0.00000395252,  0.00290544301,  0.00010789604, -0.00000110004,  0.00000368781, -0.00000258514,  0.00992297979, -0.00005672936,  0.00003607036, -0.00000408937,  0.00001706996, -0.00000226641,  0.00000135865,  0.00000946810, -0.00000000684,  0.00000477225
1329600292610085,  0.00584851080, -0.00053987597,  0.00003480204,  0.00000123286, -0.00000197691,  0.00000484051,  0.00291957870,  0.00008567789,  0.00000061475,  0.00000222977,  0.00000488273,  0.00954030672, -0.00001227348,  0.00002020334,  0.00000009855,  0.00001992757, -0.00000472943,  0.00000064914,  0.00001138348, -0.00000009556,  0.00000455896
1329600296410053,  0.00589024196, -0.00051023398,  0.00004286055,  0.00000020468, -0.00000083338,  0.00000079349,  0.00298055520,  0.00007654660,  0.00000182952,  0.00000062440,  0.00001188079,  0.00952144466,  0.00002930404, -0.00001225586, -0.00000097910,  0.00002587844, -0.00000555019, -0.00000056314,  0.00001182699,  0.00000031212,  0.00000563927
1329600300010031,  0.00592738198, -0.00046421953,  0.00004532567,  0.00000038964, -0.00000042467,  0.00000314183,  0.00301496851,  0.00007472349,  0.00000105846,  0.00000070724,  0.00001414072,  0.00967940422,  0.00004977818, -0.00001230001,  0.00000152842,  0.00002802349,  0.00000200803,  0.00000095956,  0.00000966851,  0.00000016945,  0.00000579334
1329600303610007,  0.00598401190, -0.00041939027,  0.00004424147, -0.00000101486, -0.00000047507,  0.00000692708,  0.00300776595,  0.00007822549,  0.00000043241, -0.00000011151,  0.00000990340,  0.00987771549,  0.00003868195, -0.00002484935,  0.00000187776,  0.00002800016,  0.00000358362,  0.00000133041,  0.00000976621,  0.00000024558,  0.00000568085
1329600307209977,  0.00608124330, -0.00039097164,  0.00004518804, -0.00000316098, -0.00000096735,  0.00001304870,  0.00300376214,  0.00009055223,  0.00000054386, -0.00000143722,  0.00000420252,  0.01021814472,  0.00002571988, -0.00004390372,  0.00000107650,  0.00002435843,  0.00000239779,  0.00000089436,  0.00001038578,  0.00000014540,  0.00000620313
1329600310809964,  0.00622349363, -0.00035900269,  0.00004927238, -0.00000181315, -0.00000094687,  0.00001855689,  0.00301097299,  0.00010135061,  0.00000094051, -0.00000164314,  0.00000379473,  0.01077775681,  0.00002875715, -0.00006494511, -0.00000133902,  0.00001679457, -0.00000148097, -0.00000014404,  0.00001058370,  0.00000014758,  0.00000543845
1329600314609924,  0.00640944059, -0.00040401728,  0.00006058316, -0.00000382658, -0.00000101155,  0.00002499366,  0.00302442073,  0.00010223087,  0.00000133095,  0.00000025433,  0.00000107039,  0.01121532198,  0.00008413737, -0.00001722902,  0.00001347333,  0.00001882430,  0.00000126175,  0.00000168609,  0.00001407974,  0.00000005242,  0.00000736191
1329600318809894,  0.00646279140, -0.00051237991,  0.00006979256, -0.00000165295, -0.00000246630,  0.00002159943,  0.00303015038,  0.00009892850,  0.00000169606,  0.00000127342,  0.00000789716,  0.01113252546,  0.00006324663,  0.00001864316,  0.00000619634,  0.00003070154,  0.00000091149,  0.00000200730,  0.00001699520,  0.00000006330,  0.00000984394
1329600322409863,  0.00642583811, -0.00060804536,  0.00008148721, -0.00000078584, -0.00000185497,  0.00001630920,  0.00295807792,  0.00008744412,  0.00000040539,  0.00000128305,  0.00000880289,  0.01103043685,  0.00003845151,  0.00000269721,  0.00000237949,  0.00002744453,  0.00000148564,  0.00000102739,  0.00001678526, -0.00000004192,  0.00000902976
1329600325809845,  0.00637546537, -0.00067891060,  0.00009629602, -0.00000100126, -0.00000290582,  0.00001303961,  0.00284816677,  0.00008249207,  0.00000093224,  0.00000166698,  0.00001336152,  0.01107557206,  0.00002615425, -0.00001542256,  0.00000263320,  0.00001629294,  0.00000136231,  0.00000063411,  0.00001515550, -0.00000018890,  0.00000629058
1329600329409847,  0.00637145524, -0.00071962372,  0.00012004531, -0.00000154213, -0.00000428230,  0.00000548115,  0.00273576511,  0.00007830516,  0.00000194381,  0.00000078435,  0.00001246508,  0.01142611270,  0.00000049315, -0.00004724940,  0.00000069820,  0.00001831445,  0.00000211071,  0.00000071499,  0.00001481788,  0.00000006953,  0.00000654121
1329600332809808,  0.00637853531, -0.00072636066,  0.00014839637, -0.00000142427, -0.00000492614, -0.00000337415,  0.00261366781,  0.00007629235,  0.00000173941,  0.00000057592,  0.00001406564,  0.01205311768, -0.00002587644, -0.00007614626, -0.00000159809,  0.00002103636,  0.00000240645,  0.00000124759,  0.00001553540,  0.00000015742,  0.00000723930
1329600336609769,  0.00638643148, -0.00069444121,  0.00018591205, -0.00000253809, -0.00000566161, -0.00001286991,  0.00246847004,  0.00007610584,  0.00000304595,  0.00000005091,  0.00001388077,  0.01305343570, -0.00007445488, -0.00010356627, -0.00000205472,  0.00002223593,  0.00000326180,  0.00000068842,  0.00001516440,  0.00000002414,  0.00000725403
1329600340209745,  0.00641543564, -0.00062749897,  0.00022698082,  0.00000149162, -0.00000686493, -0.00002467749,  0.00234716881,  0.00007643048,  0.00000229299, -0.00000056367,  0.00000816594,  0.01439425887, -0.00012979913, -0.00013631577, -0.00002883969,  0.00002033416,  0.00000543801,  0.00000314143,  0.00001642473,  0.00000110869,  0.00000830788
1329600347409686,  0.00625928777, -0.00054544931,  0.00019767705, -0.00000532689,  0.00000174117, -0.00000932011,  0.00228623984,  0.00010738282,  0.00000086041, -0.00000345738,  0.00001351497,  0.01416762956, -0.00015307489,  0.00002041918,  0.00001013913,  0.00002222583, -0.00000435407, -0.00000132424,  0.00001320805,  0.00000073776,  0.00000711359
1329600351209662,  0.00616578253, -0.00046357704,  0.00018602852, -0.00000518510,  0.00000081501, -0.00000362614,  0.00226164614,  0.00012702714,  0.00000182288, -0.00000440242,  0.00002072486,  0.01417016472, -0.00013438717, -0.00001523373,  0.00000576914,  0.00002295671, -0.00000027718, -0.00000113775,  0.00001207167,  0.00000040064,  0.00000736564
1329600354609641,  0.00610109020, -0.00039488157,  0.00016118794, -0.00000391259,  0.00000087415, -0.00000278781,  0.00220952274,  0.00015324979,  0.00000081074, -0.00000385207,  0.00002067447,  0.01448963125, -0.00013775638, -0.00002569310,  0.00000249093,  0.00002535890,  0.00000091138, -0.00000080076,  0.00001293291,  0.00000029784,  0.00000816942
1329600358209619,  0.00604296546, -0.00032999262,  0.00013143471, -0.00000267059,  0.00000100817, -0.00000054091,  0.00215160781,  0.00017744675, -0.00000015370, -0.00000323258,  0.00001984084,  0.01479418087, -0.00013619385, -0.00004401711, -0.00000021054,  0.00002782804,  0.00000185556, -0.00000060413,  0.00001308359,  0.00000020577,  0.00000856106
1329600361809590,  0.00599155792, -0.00027538501,  0.00010020999, -0.00000121470,  0.00000165991,  0.00000052095,  0.00210009071,  0.00019904335, -0.00000076897, -0.00000273929,  0.00001966138,  0.01515586448, -0.00014527260, -0.00003532685,  0.00000330227,  0.00002815070,  0.00000050087, -0.00000099756,  0.00001325612,  0.00000022569,  0.00000876396
1329600365209589,  0.00594414037, -0.00023329389,  0.00007286963, -0.00000057531,  0.00000189233,  0.00000111131,  0.00205434111,  0.00021804396, -0.00000135573, -0.00000264559,  0.00001740734,  0.01561915399, -0.00015186974, -0.00005724104,  0.00000046267,  0.00002798726,  0.00000281391, -0.00000049597,  0.00001353837,  0.00000012575,  0.00000861661